Montague, CA

8:46 AM PDT on July 20, 2017 (GMT -0700)
Siskiyou County

Weather History for KSIY - October, 2013

Change the Weather History Date:

Friday, October 25, 2013

  Actual Average Record
Temperature  
Mean Temperature 50 °F 48 °F  
Max Temperature 73 °F 62 °F 82 °F (1988)
Min Temperature 27 °F 34 °F 22 °F (2001)
Degree Days  
Heating Degree Days 15 17  
Month to date heating degree days 382 302  
Since 1 July heating degree days 529 444  
Cooling Degree Days 0 0  
Month to date cooling degree days 0 0  
Year to date cooling degree days 776 542  
Moisture  
Dew Point 25 °F    
Average Humidity 46    
Maximum Humidity 69    
Minimum Humidity 17    
Precipitation  
Precipitation 0.00 in 0.06 in 1.06 in (1979)
Month to date precipitation T 0.79  
Year to date precipitation 5.07 12.43  
Sea Level Pressure  
Sea Level Pressure 30.25 in    
Wind  
Wind Speed 1 mph (SSW)    
Max Wind Speed 7 mph    
Max Gust Speed 7 mph    
Visibility 10 miles    
Events      
T = Trace of Precipitation, MM = Missing Value Source: NWS Daily Summary

Daily Weather History Graph

Daily Weather History Graph

Search for Another Location

Airport or City:

Trip Planner

Search our weather history database for the weather conditions in past years. The results will help you decide how hot, cold, wet, or windy it might be!

Date:

Astronomy

Oct. 25, 2013 Rise Set
Actual Time 7:34 AM PDT 6:13 PM PDT
Civil Twilight 7:05 AM PDT 6:41 PM PDT
Nautical Twilight 6:33 AM PDT 7:14 PM PDT
Astronomical Twilight 6:00 AM PDT 7:46 PM PDT
Moon 11:36 PM PDT (10/25) 1:19 PM PDT (10/25)
Length of Visible Light 11h 35m
Length of Day
10h 38m
Waning Gibbous, 61% of the Moon is Illuminated
Oct 25
Waning Gibbous
Oct 26
Last Quarter
Nov 3
New
Nov 9
First Quarter
Nov 17
Full

Hourly Weather History & Observations

Time (PDT) Temp. Windchill Dew Point Humidity Pressure Visibility Wind Dir Wind Speed Gust Speed Precip Events Conditions
12:53 AM 35.1 °F 32.2 °F 21.0 °F 57% 30.18 in 10.0 mi East 3.5 mph - N/A   Clear
1:53 AM 33.1 °F 27.7 °F 21.9 °F 64% 30.19 in 10.0 mi NNE 5.8 mph - N/A   Clear
2:53 AM 37.0 °F - 24.1 °F 59% 30.19 in 10.0 mi Calm Calm - N/A   Clear
3:53 AM 33.1 °F - 23.0 °F 66% 30.21 in 10.0 mi Calm Calm - N/A   Clear
4:53 AM 30.9 °F - 21.9 °F 69% 30.22 in 10.0 mi Calm Calm - N/A   Clear
5:53 AM 33.1 °F - 24.1 °F 70% 30.24 in 10.0 mi Calm Calm - N/A   Clear
6:53 AM 30.9 °F - 21.9 °F 69% 30.27 in 10.0 mi Calm Calm - N/A   Clear
7:53 AM 28.0 °F - 19.9 °F 72% 30.30 in 10.0 mi Calm Calm - N/A   Clear
8:53 AM 37.0 °F - 26.1 °F 65% 30.32 in 10.0 mi Calm Calm - N/A   Clear
9:53 AM 46.0 °F - 28.9 °F 51% 30.31 in 10.0 mi Calm Calm - N/A   Clear
10:53 AM 53.1 °F - 30.0 °F 41% 30.31 in 10.0 mi Calm Calm - N/A   Clear
11:53 AM 57.9 °F - 28.9 °F 33% 30.29 in 10.0 mi Calm Calm - N/A   Clear
12:53 PM 62.1 °F - 30.0 °F 30% 30.27 in 10.0 mi WSW 3.5 mph - N/A   Clear
1:53 PM 68.0 °F - 28.9 °F 23% 30.24 in 10.0 mi Calm Calm - N/A   Clear
2:53 PM 71.1 °F - 28.0 °F 20% 30.21 in 10.0 mi SW 4.6 mph - N/A   Clear
3:53 PM 72.0 °F - 26.1 °F 18% 30.21 in 10.0 mi Calm Calm - N/A   Clear
4:53 PM 71.1 °F - 25.0 °F 18% 30.21 in 10.0 mi SW 3.5 mph - N/A   Clear
5:53 PM 66.9 °F - 28.9 °F 24% 30.20 in 10.0 mi SW 3.5 mph - N/A   Clear
6:53 PM 52.0 °F - 23.0 °F 32% 30.24 in 10.0 mi ESE 4.6 mph - N/A   Clear
7:53 PM 50.0 °F - 23.0 °F 35% 30.27 in 10.0 mi Calm Calm - N/A   Clear
8:53 PM 46.9 °F - 23.0 °F 39% 30.27 in 10.0 mi Calm Calm - N/A   Clear
9:53 PM 42.1 °F - 21.0 °F 43% 30.27 in 10.0 mi Calm Calm - N/A   Clear
10:53 PM 41.0 °F - 21.9 °F 47% 30.27 in 7.0 mi Calm Calm - N/A   Clear
11:53 PM 39.9 °F 37.8 °F 21.0 °F 47% 30.27 in 10.0 mi Variable 3.5 mph - N/A   Clear